{"data":{"norad_id":49283,"intl_designator":"2021-090E","name":"ONEWEB-0356","alt_names":[],"object_type":"PAYLOAD","status":"ACTIVE","operator":null,"country":"UK","launch_date":"2021-10-14","launch_site_code":"VOSTO","launch_vehicle":null,"mission":null,"orbit_class":"UNKNOWN","rcs_meters":null,"size_class":null,"mass_kg":null,"dimensions":null,"purposes":["comms"],"wikipedia_slug":null,"has_3d_model":false,"image_url":null,"decayed_at":null,"tle_current":{"epoch":"2026-09-19T22:08:03.679584Z","epoch_age_seconds":76031,"freshness":"FRESH","line1":"1 49283U 21090E   26262.92226481  .00000785  00000+0  18996-2 0  9994","line2":"2 49283  87.9122 255.5352 0003524  95.6767 264.4768 13.20767107242333","mean_motion":13.20767107,"eccentricity":0.0003524,"inclination_deg":87.9122,"raan_deg":255.5352,"arg_perigee_deg":95.6767,"mean_anomaly_deg":264.4768,"bstar":0.0018996,"rev_number":24233,"period_min":109.02754863958,"perigee_km":1179.1272114386,"apogee_km":1184.4554489257,"semimajor_km":7559.9283301821,"source":"CELESTRAK","updated_at":"2026-09-20T09:00:44.669050Z"}}}